AFL0283 USHH-UNNT

Flight info

Callsign AFL0283
Flight time 1h 38m
Altitude 31000
Route TERDO1C TERDO B228 MINOR B925 LAMGA LAMGA1P
Aircraft B737/M-SDE2E3FGHIRWXY/LB1

Departure

Time 2026-04-22 08:19
Airport Khanty Mansiysk Airport (USHH)

Arrival

Time 2026-04-22 09:58
Airport Novosibirsk Tolmachevo Airport (UNNT)
Time Latitude Longitude Altitude Speed Heading
2026-04-22 07:46 61.02679 69.09518 142 ft 0 kts 161°
2026-04-22 08:06 61.02684 69.09514 143 ft 2 kts 161°
2026-04-22 08:06 61.02700 69.09503 143 ft 2 kts 166°
2026-04-22 08:07 61.02715 69.09505 143 ft 2 kts 215°
2026-04-22 08:07 61.02725 69.09531 143 ft 2 kts 259°
2026-04-22 08:07 61.02723 69.09505 142 ft 2 kts 259°
2026-04-22 08:07 61.02719 69.09475 142 ft 2 kts 254°
2026-04-22 08:08 61.02715 69.09446 142 ft 2 kts 254°
2026-04-22 08:08 61.02708 69.09394 142 ft 4 kts 254°
2026-04-22 08:08 61.02705 69.09361 142 ft 2 kts 272°
2026-04-22 08:08 61.02712 69.09336 142 ft 2 kts 316°
2026-04-22 08:09 61.02723 69.09325 142 ft 0 kts 342°
2026-04-22 08:13 61.02749 69.09295 142 ft 11 kts 314°
2026-04-22 08:13 61.02738 69.09058 142 ft 23 kts 256°
2026-04-22 08:14 61.02690 69.08664 142 ft 33 kts 256°
2026-04-22 08:14 61.02635 69.08212 143 ft 31 kts 256°
2026-04-22 08:14 61.02585 69.07798 143 ft 24 kts 256°
2026-04-22 08:14 61.02547 69.07490 142 ft 19 kts 258°
2026-04-22 08:15 61.02571 69.07295 142 ft 7 kts 308°
2026-04-22 08:15 61.02572 69.07293 142 ft 0 kts 308°
2026-04-22 08:15 61.02594 69.07261 142 ft 12 kts 333°
2026-04-22 08:16 61.02665 69.07090 142 ft 23 kts 269°
2026-04-22 08:16 61.02607 69.06670 143 ft 37 kts 255°
2026-04-22 08:16 61.02572 69.06284 145 ft 18 kts 267°
2026-04-22 08:16 61.02533 69.06126 144 ft 6 kts 173°
2026-04-22 08:17 61.02524 69.06198 144 ft 9 kts 55°
2026-04-22 08:17 61.02567 69.06358 145 ft 0 kts 74°
2026-04-22 08:19 61.02569 69.06369 145 ft 11 kts 74°
2026-04-22 08:19 61.02668 69.07166 142 ft 101 kts 76°
2026-04-22 08:19 61.02907 69.09030 214 ft 164 kts 75°
2026-04-22 08:19 61.03285 69.11340 1188 ft 169 kts 73°
2026-04-22 08:20 61.03599 69.13614 2456 ft 162 kts 85°
2026-04-22 08:20 61.03852 69.15877 3500 ft 163 kts 87°
2026-04-22 08:20 61.04119 69.18200 4304 ft 173 kts 85°
2026-04-22 08:20 61.04424 69.20787 4832 ft 199 kts 84°
2026-04-22 08:21 61.04656 69.23790 5650 ft 219 kts 103°
2026-04-22 08:21 61.04142 69.26837 6188 ft 241 kts 136°
2026-04-22 08:21 61.02808 69.28801 7146 ft 236 kts 159°
2026-04-22 08:21 61.01306 69.30211 8150 ft 239 kts 160°
2026-04-22 08:22 60.99770 69.31599 9151 ft 243 kts 160°
2026-04-22 08:22 60.98211 69.33014 10072 ft 247 kts 160°
2026-04-22 08:22 60.96623 69.34467 10918 ft 252 kts 160°
2026-04-22 08:22 60.95008 69.35957 11787 ft 257 kts 160°
2026-04-22 08:23 60.93365 69.37480 12709 ft 261 kts 160°
2026-04-22 08:23 60.91701 69.39029 13590 ft 265 kts 160°
2026-04-22 08:23 60.90012 69.40604 14399 ft 269 kts 160°
2026-04-22 08:23 60.88314 69.42186 15197 ft 273 kts 161°
2026-04-22 08:24 60.86571 69.43807 15969 ft 278 kts 161°
2026-04-22 08:24 60.84806 69.45510 16747 ft 285 kts 155°
2026-04-22 08:24 60.83288 69.48288 17514 ft 304 kts 135°
2026-04-22 08:24 60.82246 69.52181 18238 ft 324 kts 115°
2026-04-22 08:25 60.81836 69.56845 18907 ft 338 kts 105°
2026-04-22 08:25 60.81607 69.61687 19580 ft 344 kts 103°
2026-04-22 08:25 60.81408 69.66606 20249 ft 349 kts 103°
2026-04-22 08:25 60.81199 69.71588 20911 ft 353 kts 103°
2026-04-22 08:26 60.80974 69.76570 21565 ft 358 kts 104°
2026-04-22 08:26 60.80727 69.81664 22235 ft 362 kts 104°
2026-04-22 08:26 60.80468 69.86835 22905 ft 367 kts 104°
2026-04-22 08:26 60.80077 69.91977 23492 ft 361 kts 117°
2026-04-22 08:27 60.79013 69.96516 24043 ft 351 kts 130°
2026-04-22 08:27 60.77727 70.00783 24589 ft 354 kts 132°
2026-04-22 08:27 60.76388 70.05058 25110 ft 359 kts 132°
2026-04-22 08:27 60.75035 70.09376 25647 ft 364 kts 132°
2026-04-22 08:28 60.73667 70.13778 26167 ft 369 kts 132°
2026-04-22 08:28 60.72293 70.18234 26685 ft 374 kts 132°
2026-04-22 08:28 60.70921 70.22706 27186 ft 379 kts 132°
2026-04-22 08:28 60.69516 70.27293 27686 ft 384 kts 132°
2026-04-22 08:29 60.68095 70.31936 28202 ft 388 kts 132°
2026-04-22 08:29 60.66655 70.36635 28691 ft 393 kts 132°
2026-04-22 08:29 60.65198 70.41379 29175 ft 397 kts 133°
2026-04-22 08:29 60.63723 70.46161 29692 ft 400 kts 133°
2026-04-22 08:30 60.62249 70.50975 30214 ft 401 kts 132°
2026-04-22 08:30 60.60814 70.55772 30651 ft 403 kts 131°
2026-04-22 08:30 60.57903 70.65594 30650 ft 403 kts 131°
2026-04-22 08:31 60.55022 70.75306 30658 ft 402 kts 131°
2026-04-22 08:32 60.50651 70.89880 30660 ft 404 kts 131°
2026-04-22 08:32 60.47729 70.99565 30669 ft 406 kts 131°
2026-04-22 08:33 60.44771 71.09326 30665 ft 407 kts 131°
2026-04-22 08:33 60.41804 71.19080 30665 ft 407 kts 131°
2026-04-22 08:34 60.38829 71.28816 30666 ft 407 kts 131°
2026-04-22 08:34 60.35867 71.38469 30675 ft 407 kts 131°
2026-04-22 08:35 60.32875 71.48178 30675 ft 408 kts 131°
2026-04-22 08:35 60.29873 71.57877 30676 ft 408 kts 132°
2026-04-22 08:36 60.26855 71.67585 30680 ft 409 kts 132°
2026-04-22 08:36 60.23823 71.77301 30683 ft 410 kts 132°
2026-04-22 08:37 60.20800 71.86947 30679 ft 411 kts 132°
2026-04-22 08:37 60.17741 71.96668 30695 ft 412 kts 132°
2026-04-22 08:38 60.14667 72.06393 30694 ft 413 kts 132°
2026-04-22 08:38 60.11576 72.16134 30696 ft 414 kts 132°
2026-04-22 08:39 60.08495 72.25803 30700 ft 415 kts 132°
2026-04-22 08:39 60.05383 72.35527 30702 ft 415 kts 132°
2026-04-22 08:40 60.02259 72.45249 30706 ft 416 kts 132°
2026-04-22 08:40 59.99119 72.54981 30709 ft 417 kts 132°
2026-04-22 08:41 59.95967 72.64710 30715 ft 417 kts 132°
2026-04-22 08:41 59.92808 72.74419 30717 ft 417 kts 132°
2026-04-22 08:42 59.89662 72.84049 30722 ft 418 kts 131°
2026-04-22 08:42 59.86481 72.93744 30726 ft 419 kts 131°
2026-04-22 08:43 59.83288 73.03435 30730 ft 419 kts 131°
2026-04-22 08:43 59.80075 73.13130 30759 ft 432 kts 131°
2026-04-22 08:43 59.78394 73.18170 30763 ft 444 kts 131°
2026-04-22 08:44 59.76663 73.23354 30762 ft 455 kts 131°
2026-04-22 08:44 59.73096 73.34031 30760 ft 474 kts 130°
2026-04-22 08:45 59.69404 73.45066 30745 ft 484 kts 130°
2026-04-22 08:45 59.65677 73.56167 30750 ft 485 kts 130°
2026-04-22 08:46 59.61957 73.67175 30762 ft 485 kts 130°
2026-04-22 08:46 59.58201 73.78224 30767 ft 484 kts 130°
2026-04-22 08:47 59.54445 73.89221 30774 ft 482 kts 130°
2026-04-22 08:47 59.50695 74.00146 30772 ft 481 kts 130°
2026-04-22 08:48 59.46942 74.11028 30785 ft 480 kts 130°
2026-04-22 08:48 59.43205 74.21816 30790 ft 481 kts 130°
2026-04-22 08:49 59.39426 74.32674 30793 ft 482 kts 130°
2026-04-22 08:49 59.35631 74.43538 30804 ft 483 kts 130°
2026-04-22 08:50 59.31817 74.54375 30802 ft 484 kts 130°
2026-04-22 08:50 59.27959 74.65176 30825 ft 485 kts 131°
2026-04-22 08:51 59.24103 74.75906 30817 ft 486 kts 130°
2026-04-22 08:51 59.20213 74.86699 30821 ft 486 kts 130°
2026-04-22 08:52 59.16309 74.97492 30825 ft 487 kts 130°
2026-04-22 08:52 59.12423 75.08190 30824 ft 487 kts 130°
2026-04-22 08:53 59.08503 75.18932 30828 ft 487 kts 130°
2026-04-22 08:53 59.04574 75.29648 30835 ft 487 kts 130°
2026-04-22 08:54 59.00635 75.40341 30848 ft 487 kts 130°
2026-04-22 08:54 58.96685 75.51019 30848 ft 487 kts 130°
2026-04-22 08:55 58.92749 75.61608 30854 ft 488 kts 130°
2026-04-22 08:55 58.88773 75.72258 30858 ft 488 kts 130°
2026-04-22 08:56 58.84788 75.82884 30861 ft 489 kts 130°
2026-04-22 08:56 58.80816 75.93431 30864 ft 489 kts 130°
2026-04-22 08:57 58.76807 76.04027 30873 ft 489 kts 130°
2026-04-22 08:57 58.72795 76.14585 30872 ft 489 kts 130°
2026-04-22 08:58 58.68768 76.25133 30879 ft 489 kts 130°
2026-04-22 08:58 58.64745 76.35630 30883 ft 488 kts 130°
2026-04-22 08:59 58.60735 76.46049 30895 ft 488 kts 130°
2026-04-22 08:59 58.56470 76.56117 30900 ft 484 kts 137°
2026-04-22 09:00 58.51813 76.65401 30885 ft 483 kts 139°
2026-04-22 09:00 58.47117 76.74590 30902 ft 484 kts 139°
2026-04-22 09:01 58.42471 76.83777 30891 ft 484 kts 138°
2026-04-22 09:01 58.37807 76.93049 30906 ft 484 kts 138°
2026-04-22 09:02 58.33138 77.02315 30904 ft 485 kts 138°
2026-04-22 09:02 58.28466 77.11548 30905 ft 485 kts 138°
2026-04-22 09:03 58.23777 77.20771 30908 ft 485 kts 138°
2026-04-22 09:03 58.19115 77.29899 30911 ft 485 kts 138°
2026-04-22 09:04 58.14417 77.39065 30914 ft 485 kts 138°
2026-04-22 09:04 58.09705 77.48218 30909 ft 486 kts 138°
2026-04-22 09:05 58.04988 77.57345 30919 ft 486 kts 138°
2026-04-22 09:05 58.00288 77.66403 30928 ft 486 kts 138°
2026-04-22 09:06 57.95553 77.75491 30925 ft 486 kts 138°
2026-04-22 09:06 57.90806 77.84568 30928 ft 486 kts 138°
2026-04-22 09:07 57.86088 77.93551 30927 ft 486 kts 138°
2026-04-22 09:07 57.81335 78.02567 30932 ft 486 kts 138°
2026-04-22 09:08 57.76570 78.11569 30940 ft 486 kts 139°
2026-04-22 09:08 57.71806 78.20533 30933 ft 486 kts 139°
2026-04-22 09:09 57.67035 78.29476 30938 ft 486 kts 139°
2026-04-22 09:09 57.62287 78.38338 30944 ft 486 kts 139°
2026-04-22 09:10 57.57504 78.47234 30947 ft 486 kts 139°
2026-04-22 09:10 57.52716 78.56103 30950 ft 485 kts 139°
2026-04-22 09:11 57.47925 78.64942 30952 ft 486 kts 139°
2026-04-22 09:11 57.43157 78.73705 30947 ft 486 kts 139°
2026-04-22 09:12 57.38351 78.82505 30951 ft 485 kts 139°
2026-04-22 09:12 57.33541 78.91280 30960 ft 485 kts 139°
2026-04-22 09:13 57.28726 79.00034 30959 ft 485 kts 139°
2026-04-22 09:13 57.24109 79.09026 30952 ft 489 kts 128°
2026-04-22 09:14 57.20304 79.19438 30963 ft 490 kts 124°
2026-04-22 09:14 57.16585 79.29943 30970 ft 489 kts 125°
2026-04-22 09:15 57.12825 79.40396 30974 ft 489 kts 125°
2026-04-22 09:15 57.09034 79.50775 30978 ft 489 kts 126°
2026-04-22 09:16 57.05250 79.61058 30977 ft 488 kts 126°
2026-04-22 09:16 57.01441 79.71362 30979 ft 488 kts 126°
2026-04-22 09:17 56.97623 79.81654 30980 ft 487 kts 126°
2026-04-22 09:17 56.93829 79.91842 30990 ft 487 kts 126°
2026-04-22 09:18 56.90007 80.02059 30984 ft 487 kts 126°
2026-04-22 09:18 56.86172 80.12269 30985 ft 486 kts 126°
2026-04-22 09:19 56.82336 80.22438 30989 ft 486 kts 126°
2026-04-22 09:19 56.78494 80.32582 30993 ft 486 kts 126°
2026-04-22 09:20 56.74668 80.42640 30989 ft 486 kts 126°
2026-04-22 09:20 56.70814 80.52731 30997 ft 485 kts 126°
2026-04-22 09:21 56.66953 80.62796 30994 ft 485 kts 126°
2026-04-22 09:21 56.63091 80.72826 30998 ft 485 kts 126°
2026-04-22 09:22 56.59245 80.82770 30998 ft 484 kts 126°
2026-04-22 09:22 56.55370 80.92747 30997 ft 484 kts 127°
2026-04-22 09:23 56.51492 81.02694 31001 ft 483 kts 127°
2026-04-22 09:23 56.49577 81.07594 30976 ft 468 kts 127°
2026-04-22 09:23 56.47728 81.12319 30980 ft 452 kts 127°
2026-04-22 09:23 56.45941 81.16876 30977 ft 437 kts 127°
2026-04-22 09:24 56.44213 81.21271 30979 ft 423 kts 127°
2026-04-22 09:24 56.42539 81.25521 30696 ft 420 kts 127°
2026-04-22 09:24 56.40847 81.29801 30318 ft 418 kts 127°
2026-04-22 09:24 56.39153 81.34082 29811 ft 419 kts 127°
2026-04-22 09:25 56.37467 81.38332 29433 ft 414 kts 127°
2026-04-22 09:25 56.35794 81.42548 29003 ft 412 kts 127°
2026-04-22 09:25 56.34136 81.46720 28594 ft 408 kts 127°
2026-04-22 09:25 56.32487 81.50861 28188 ft 405 kts 127°
2026-04-22 09:26 56.30845 81.54978 27763 ft 403 kts 127°
2026-04-22 09:26 56.29233 81.59012 27365 ft 401 kts 127°
2026-04-22 09:26 56.27609 81.63070 26944 ft 399 kts 127°
2026-04-22 09:26 56.25992 81.67105 26537 ft 397 kts 127°
2026-04-22 09:27 56.24378 81.71123 26127 ft 395 kts 127°
2026-04-22 09:27 56.22777 81.75105 25725 ft 393 kts 127°
2026-04-22 09:27 56.21175 81.79081 25317 ft 392 kts 127°
2026-04-22 09:27 56.19580 81.83035 24911 ft 390 kts 127°
2026-04-22 09:28 56.17989 81.86971 24500 ft 389 kts 127°
2026-04-22 09:28 56.16399 81.90899 24096 ft 388 kts 127°
2026-04-22 09:28 56.14835 81.94757 23685 ft 387 kts 127°
2026-04-22 09:28 56.13253 81.98653 23214 ft 386 kts 127°
2026-04-22 09:29 56.11672 82.02542 22747 ft 385 kts 127°
2026-04-22 09:29 56.10099 82.06404 22319 ft 383 kts 127°
2026-04-22 09:29 56.08537 82.10234 21892 ft 380 kts 127°
2026-04-22 09:29 56.06981 82.14043 21467 ft 378 kts 127°
2026-04-22 09:30 56.05434 82.17826 21053 ft 376 kts 127°
2026-04-22 09:30 56.03913 82.21538 20634 ft 374 kts 127°
2026-04-22 09:30 56.02345 82.25229 20218 ft 371 kts 134°
2026-04-22 09:30 56.00360 82.28062 19874 ft 361 kts 152°
2026-04-22 09:31 55.98225 82.30284 19462 ft 351 kts 154°
2026-04-22 09:31 55.96120 82.32367 19063 ft 342 kts 154°
2026-04-22 09:31 55.94060 82.34401 18670 ft 335 kts 154°
2026-04-22 09:31 55.92047 82.36408 18282 ft 328 kts 153°
2026-04-22 09:32 55.90078 82.38391 17846 ft 322 kts 153°
2026-04-22 09:32 55.88151 82.40345 17443 ft 317 kts 153°
2026-04-22 09:32 55.86258 82.42266 17074 ft 318 kts 154°
2026-04-22 09:32 55.84281 82.44270 16714 ft 328 kts 154°
2026-04-22 09:33 55.82300 82.46255 16329 ft 334 kts 157°
2026-04-22 09:33 55.80119 82.47436 15889 ft 324 kts 180°
2026-04-22 09:33 55.77896 82.47511 15539 ft 318 kts 186°
2026-04-22 09:33 55.75685 82.47421 15141 ft 317 kts 187°
2026-04-22 09:34 55.73486 82.47304 14743 ft 316 kts 187°
2026-04-22 09:34 55.71292 82.47195 14355 ft 315 kts 187°
2026-04-22 09:34 55.69097 82.47099 13962 ft 314 kts 187°
2026-04-22 09:35 55.64768 82.46936 13108 ft 312 kts 187°
2026-04-22 09:35 55.62600 82.46863 12701 ft 311 kts 186°
2026-04-22 09:35 55.60443 82.46793 12300 ft 308 kts 186°
2026-04-22 09:35 55.58302 82.46724 11909 ft 307 kts 186°
2026-04-22 09:36 55.56179 82.46656 11526 ft 304 kts 186°
2026-04-22 09:36 55.54069 82.46589 11141 ft 303 kts 186°
2026-04-22 09:36 55.51965 82.46522 10739 ft 302 kts 185°
2026-04-22 09:36 55.49901 82.46457 10371 ft 300 kts 185°
2026-04-22 09:37 55.47820 82.46392 10057 ft 296 kts 185°
2026-04-22 09:37 55.45810 82.46094 9910 ft 284 kts 192°
2026-04-22 09:37 55.43924 82.45493 9678 ft 272 kts 195°
2026-04-22 09:37 55.42068 82.44832 9211 ft 268 kts 195°
2026-04-22 09:38 55.40253 82.44187 8791 ft 263 kts 194°
2026-04-22 09:38 55.38478 82.43576 8442 ft 256 kts 194°
2026-04-22 09:38 55.36771 82.43000 8115 ft 249 kts 194°
2026-04-22 09:38 55.35090 82.42441 7788 ft 243 kts 193°
2026-04-22 09:39 55.33441 82.41897 7486 ft 240 kts 193°
2026-04-22 09:39 55.31793 82.41357 7180 ft 243 kts 192°
2026-04-22 09:39 55.30099 82.40804 6871 ft 252 kts 192°
2026-04-22 09:39 55.28367 82.40243 6531 ft 252 kts 191°
2026-04-22 09:40 55.26661 82.39693 6191 ft 248 kts 191°
2026-04-22 09:40 55.24963 82.39147 5849 ft 248 kts 191°
2026-04-22 09:40 55.23263 82.38601 5518 ft 249 kts 190°
2026-04-22 09:40 55.21648 82.37686 5159 ft 251 kts 211°
2026-04-22 09:41 55.20442 82.35501 5045 ft 254 kts 237°
2026-04-22 09:41 55.19869 82.32548 5024 ft 262 kts 259°
2026-04-22 09:41 55.19714 82.29358 5007 ft 263 kts 264°
2026-04-22 09:41 55.19626 82.26175 5003 ft 260 kts 265°
2026-04-22 09:42 55.19532 82.23033 4995 ft 257 kts 264°
2026-04-22 09:42 55.19426 82.19918 4991 ft 256 kts 263°
2026-04-22 09:42 55.18996 82.16962 4993 ft 249 kts 238°
2026-04-22 09:42 55.18085 82.14452 4996 ft 248 kts 234°
2026-04-22 09:43 55.17141 82.11931 4994 ft 249 kts 234°
2026-04-22 09:43 55.16194 82.09387 4993 ft 249 kts 234°
2026-04-22 09:43 55.15249 82.06845 4989 ft 249 kts 234°
2026-04-22 09:43 55.14304 82.04299 4987 ft 250 kts 234°
2026-04-22 09:44 55.13673 82.02622 4989 ft 249 kts 231°
2026-04-22 09:44 55.11891 82.00151 4998 ft 246 kts 206°
2026-04-22 09:44 55.10374 81.98760 4984 ft 246 kts 206°
2026-04-22 09:44 55.08860 81.97378 4980 ft 246 kts 206°
2026-04-22 09:45 55.07359 81.95996 4987 ft 248 kts 206°
2026-04-22 09:45 55.05823 81.94578 4989 ft 252 kts 207°
2026-04-22 09:45 55.04282 81.93153 4985 ft 249 kts 206°
2026-04-22 09:45 55.02646 81.92309 4982 ft 245 kts 185°
2026-04-22 09:46 55.00943 81.92260 4984 ft 245 kts 179°
2026-04-22 09:46 54.99237 81.92344 4972 ft 244 kts 179°
2026-04-22 09:46 54.97546 81.92425 4972 ft 242 kts 179°
2026-04-22 09:46 54.95873 81.92492 4972 ft 240 kts 180°
2026-04-22 09:47 54.94230 81.92544 4960 ft 239 kts 180°
2026-04-22 09:47 54.92567 81.92645 4964 ft 242 kts 173°
2026-04-22 09:47 54.90984 81.93690 4984 ft 247 kts 153°
2026-04-22 09:47 54.89476 81.95203 4979 ft 252 kts 152°
2026-04-22 09:48 54.87978 81.96719 4936 ft 247 kts 153°
2026-04-22 09:48 54.86496 81.98209 4626 ft 246 kts 152°
2026-04-22 09:48 54.85267 82.00261 4304 ft 251 kts 120°
2026-04-22 09:48 54.84863 82.03184 4046 ft 251 kts 91°
2026-04-22 09:49 54.85255 82.06078 3520 ft 249 kts 66°
2026-04-22 09:49 54.86228 82.08500 2966 ft 247 kts 52°
2026-04-22 09:49 54.87374 82.10649 2498 ft 238 kts 50°
2026-04-22 09:49 54.88507 82.12685 2076 ft 233 kts 49°
2026-04-22 09:50 54.89643 82.14739 2036 ft 236 kts 49°
2026-04-22 09:50 54.90769 82.16790 1992 ft 232 kts 49°
2026-04-22 09:50 54.91882 82.18831 2003 ft 233 kts 50°
2026-04-22 09:50 54.92991 82.20877 1995 ft 233 kts 50°
2026-04-22 09:51 54.94101 82.22935 2005 ft 234 kts 49°
2026-04-22 09:51 54.95202 82.24983 2000 ft 234 kts 50°
2026-04-22 09:51 54.96296 82.27018 2010 ft 222 kts 50°
2026-04-22 09:51 54.97283 82.28849 1980 ft 192 kts 50°
2026-04-22 09:52 54.97964 82.30612 1972 ft 164 kts 70°
2026-04-22 09:52 54.98242 82.32439 2003 ft 153 kts 81°
2026-04-22 09:52 54.98417 82.34259 2006 ft 151 kts 81°
2026-04-22 09:52 54.98584 82.36034 1979 ft 147 kts 82°
2026-04-22 09:53 54.98745 82.37773 1978 ft 144 kts 82°
2026-04-22 09:53 54.98903 82.39479 2016 ft 147 kts 82°
2026-04-22 09:53 54.99066 82.41242 1996 ft 147 kts 82°
2026-04-22 09:53 54.99229 82.43006 2013 ft 151 kts 82°
2026-04-22 09:54 54.99397 82.44817 2018 ft 151 kts 82°
2026-04-22 09:54 54.99557 82.46530 1973 ft 133 kts 83°
2026-04-22 09:54 54.99689 82.47960 1966 ft 122 kts 82°
2026-04-22 09:54 54.99827 82.49371 1909 ft 117 kts 82°
2026-04-22 09:55 54.99959 82.50775 1788 ft 117 kts 82°
2026-04-22 09:55 55.00086 82.52174 1614 ft 117 kts 82°
2026-04-22 09:55 55.00210 82.53561 1449 ft 118 kts 82°
2026-04-22 09:55 55.00337 82.54985 1267 ft 120 kts 81°
2026-04-22 09:56 55.00467 82.56421 1092 ft 120 kts 80°
2026-04-22 09:56 55.00597 82.57881 927 ft 123 kts 80°
2026-04-22 09:56 55.00731 82.59367 725 ft 125 kts 79°
2026-04-22 09:56 55.00867 82.60881 578 ft 128 kts 80°
2026-04-22 09:57 55.01005 82.62408 406 ft 127 kts 80°
2026-04-22 09:57 55.01135 82.63817 374 ft 103 kts 81°
2026-04-22 09:57 55.01228 82.64836 372 ft 69 kts 81°
2026-04-22 09:57 55.01291 82.65530 372 ft 54 kts 81°
2026-04-22 09:58 55.01348 82.66173 371 ft 53 kts 82°
2026-04-22 09:58 55.01357 82.66550 373 ft 20 kts 122°
2026-04-22 09:58 55.01267 82.66620 372 ft 3 kts 172°
2026-04-22 09:59 55.01261 82.66622 372 ft 3 kts 172°
2026-04-22 09:59 55.01196 82.66639 372 ft 17 kts 170°
2026-04-22 09:59 55.01118 82.66656 372 ft 13 kts 177°
2026-04-22 09:59 55.01053 82.66663 372 ft 10 kts 173°
2026-04-22 10:00 55.01028 82.66668 372 ft 1 kts 171°
2026-04-22 10:00 55.01016 82.66672 372 ft 0 kts 170°